Date String (YYYY-MM-DD hh:mm:ss) UTC,Instrument flags,absolute air pressure of the measurement (hPa),sample flow rate (lpm),inlet stack bypass flow (lpm),air temperature of the measurement (°C),ambient temperature measured by the external sensor (°C),aerosol sample conditioner tube jacket temperature (°C),OPC LED temperature (°C),internal box temperature (°C),relative humidity of the measurement (%),span deviation,mass concentration of particles derived from Lorenz-Mie calculation of OPC scattering (μg/m³),mass concentration of particles derived from Lorenz-Mie calculation of OPC scattering (μg/m³),mass concentration of particles derived from Lorenz-Mie calculation of OPC scattering (μg/m³)
DateTimeUTC,F1_M11,P_M11,Q1_M11,Q2_M11,T1_M11,T2_M11,T3_M11,T4_M11,T5_M11,U1_M11,ZSPAN_M11,X0_M11,X2_M11,X1_M11
2024-05-13 20:00:00,SystemResetWarning,0826.7,4.99,000.00,024.3,022.6,000.0,032.4,025.5,024.1,0000.0,0011.81,0004.65,0003.97
2024-05-13 20:01:00,SystemResetWarning,0826.6,5.00,000.00,023.9,020.9,000.0,032.5,024.7,024.0,0000.0,0011.95,0004.65,0003.98
2024-05-13 20:02:00,SystemResetWarning,0826.6,5.02,000.00,023.7,021.1,000.0,032.4,024.7,024.8,0000.0,0011.87,0004.62,0003.97
2024-05-13 20:03:00,SystemResetWarning,0826.7,5.00,000.00,023.7,021.6,000.0,032.3,024.9,025.0,0000.0,0010.37,0004.57,0003.96
2024-05-13 20:04:00,SystemResetWarning,0826.7,5.00,000.00,023.8,022.0,000.0,032.2,025.2,025.2,0000.0,0010.68,0004.55,0003.95
2024-05-13 20:05:00,SystemResetWarning,0826.6,5.00,000.00,023.8,022.4,000.0,032.1,025.5,025.9,0000.0,0010.53,0004.57,0003.95
2024-05-13 20:06:00,SystemResetWarning,0826.6,5.00,000.00,023.9,022.7,000.0,032.1,025.6,025.6,0000.0,0010.38,0004.59,0003.96
2024-05-13 20:07:00,SystemResetWarning,0826.6,5.00,000.00,024.0,023.0,000.0,032.1,025.8,025.4,0000.0,0009.61,0004.61,0003.98
2024-05-13 20:08:00,SystemResetWarning,0826.6,5.00,000.00,024.1,023.3,000.0,032.1,026.0,024.7,0000.0,0009.99,0004.59,0003.99
2024-05-13 20:09:00,SystemResetWarning,0826.6,5.01,000.00,024.2,023.5,000.0,032.2,026.1,025.0,0000.0,0009.96,0004.60,0004.01
2024-05-13 20:10:00,SystemResetWarning,0826.7,5.00,000.00,024.3,023.7,000.0,032.2,026.3,026.2,0000.0,0010.00,0004.64,0004.02
2024-05-13 20:11:00,SystemResetWarning,0826.6,5.00,000.00,024.4,023.9,000.0,032.2,026.4,025.2,0000.0,0010.35,0004.65,0004.03
2024-05-13 20:12:00,SystemResetWarning,0826.6,5.00,000.00,024.5,024.1,000.0,032.3,026.5,024.4,0000.0,0010.48,0004.65,0004.05
2024-05-13 20:13:00,SystemResetWarning,0826.6,4.98,000.00,024.5,023.4,000.0,032.4,026.0,023.5,0000.0,0010.62,0004.69,0004.08
2024-05-13 20:14:00,SystemResetWarning,0826.6,5.00,000.00,024.1,021.5,000.0,032.4,025.0,024.3,0000.0,0010.91,0004.73,0004.08
2024-05-13 20:15:00,SystemResetWarning,0826.6,5.01,000.00,023.8,021.1,000.0,032.4,024.7,025.3,0000.0,0010.48,0004.76,0004.11
2024-05-13 20:16:00,SystemResetWarning,0826.6,4.99,000.00,023.7,021.5,000.0,032.3,024.9,025.1,0000.0,0010.94,0004.77,0004.12
2024-05-13 20:17:00,SystemResetWarning,0826.6,4.99,000.00,023.8,021.9,000.0,032.2,025.1,024.3,0000.0,0011.11,0004.79,0004.14
2024-05-13 20:18:00,SystemResetWarning,0826.6,5.00,000.00,023.8,022.3,000.0,032.2,025.4,024.1,0000.0,0011.11,0004.80,0004.14
2024-05-13 20:19:00,SystemResetWarning,0826.6,5.01,000.00,023.9,022.7,000.0,032.1,025.6,023.4,0000.0,0010.78,0004.77,0004.14
2024-05-13 20:20:00,SystemResetWarning,0826.7,5.00,000.00,024.0,023.0,000.0,032.1,025.8,023.2,0000.0,0011.13,0004.78,0004.12
2024-05-13 20:21:00,SystemResetWarning,0826.8,4.99,000.00,024.1,023.2,000.0,032.1,026.0,023.3,0000.0,0011.02,0004.71,0004.10
2024-05-13 20:22:00,SystemResetWarning,0826.8,4.99,000.00,024.2,023.5,000.0,032.1,026.1,023.2,0000.0,0010.86,0004.67,0004.08
2024-05-13 20:23:00,SystemResetWarning,0826.8,5.00,000.00,024.3,023.7,000.0,032.2,026.2,022.6,0000.0,0010.36,0004.62,0004.04
2024-05-13 20:24:00,SystemResetWarning,0826.8,5.00,000.00,024.4,023.9,000.0,032.2,026.3,022.1,0000.0,0010.24,0004.58,0003.99
2024-05-13 20:25:00,SystemResetWarning,0826.8,5.01,000.00,024.4,024.0,000.0,032.3,026.4,022.6,0000.0,0010.01,0004.50,0003.94
2024-05-13 20:26:00,SystemResetWarning,0826.8,5.01,000.00,024.5,024.2,000.0,032.3,026.5,022.9,0000.0,0010.12,0004.45,0003.90
2024-05-13 20:27:00,SystemResetWarning,0826.8,4.98,000.00,024.5,023.2,000.0,032.4,025.9,022.1,0000.0,0009.62,0004.38,0003.85
2024-05-13 20:28:00,SystemResetWarning,0826.8,5.01,000.00,024.1,021.2,000.0,032.5,024.8,022.2,0000.0,0009.22,0004.30,0003.81
2024-05-13 20:29:00,SystemResetWarning,0826.8,5.01,000.00,023.8,021.1,000.0,032.5,024.7,022.8,0000.0,0009.63,0004.26,0003.77
2024-05-13 20:30:00,SystemResetWarning,0826.8,4.98,000.00,023.8,021.5,000.0,032.4,024.9,023.7,0000.0,0009.41,0004.24,0003.75
2024-05-13 20:31:00,SystemResetWarning,0826.8,4.99,000.00,023.8,021.9,000.0,032.3,025.1,024.4,0000.0,0009.22,0004.23,0003.74
2024-05-13 20:32:00,SystemResetWarning,0826.8,5.01,000.00,023.8,022.3,000.0,032.2,025.4,022.1,0000.0,0009.29,0004.24,0003.73
2024-05-13 20:33:00,SystemResetWarning,0826.8,5.01,000.00,023.9,022.7,000.0,032.2,025.6,022.4,0000.0,0009.13,0004.22,0003.73
2024-05-13 20:34:00,SystemResetWarning,0826.7,4.99,000.00,024.0,023.0,000.0,032.2,025.8,022.0,0000.0,0009.21,0004.23,0003.73
2024-05-13 20:35:00,SystemResetWarning,0826.8,4.99,000.00,024.1,023.3,000.0,032.2,026.0,022.2,0000.0,0009.13,0004.21,0003.73
2024-05-13 20:36:00,SystemResetWarning,0826.7,5.00,000.00,024.2,023.5,000.0,032.2,026.1,022.0,0000.0,0008.95,0004.18,0003.71
2024-05-13 20:37:00,SystemResetWarning,0826.6,5.01,000.00,024.3,023.7,000.0,032.2,026.2,022.1,0000.0,0008.64,0004.18,0003.72
2024-05-13 20:38:00,SystemResetWarning,0826.6,5.00,000.00,024.4,023.9,000.0,032.2,026.3,021.9,0000.0,0008.68,0004.19,0003.72
2024-05-13 20:39:00,SystemResetWarning,0826.6,4.99,000.00,024.5,024.0,000.0,032.3,026.4,022.2,0000.0,0008.45,0004.17,0003.71
2024-05-13 20:40:00,SystemResetWarning,0826.5,4.98,000.00,024.4,022.6,000.0,032.4,025.6,021.8,0000.0,0008.05,0004.15,0003.70
2024-05-13 20:41:00,SystemResetWarning,0826.4,5.02,000.00,024.0,021.1,000.0,032.4,024.7,022.3,0000.0,0007.52,0004.11,0003.68
2024-05-13 20:42:00,SystemResetWarning,0826.4,5.01,000.00,023.8,021.2,000.0,032.4,024.8,022.9,0000.0,0007.13,0004.05,0003.65
2024-05-13 20:43:00,SystemResetWarning,0826.4,4.99,000.00,023.7,021.6,000.0,032.3,024.9,024.2,0000.0,0007.00,0004.03,0003.63
2024-05-13 20:44:00,SystemResetWarning,0826.4,5.00,000.00,023.8,022.0,000.0,032.2,025.2,023.6,0000.0,0007.11,0004.06,0003.63
2024-05-13 20:45:00,SystemResetWarning,0826.4,5.02,000.00,023.8,022.4,000.0,032.1,025.4,023.8,0000.0,0007.07,0004.07,0003.62
2024-05-13 20:46:00,SystemResetWarning,0826.3,5.00,000.00,023.9,022.8,000.0,032.1,025.6,023.8,0000.0,0007.34,0004.08,0003.61
2024-05-13 20:47:00,SystemResetWarning,0826.4,4.99,000.00,024.0,023.1,000.0,032.1,025.8,023.0,0000.0,0008.34,0004.15,0003.64
2024-05-13 20:48:00,SystemResetWarning,0826.4,5.00,000.00,024.1,023.3,000.0,032.1,026.0,022.8,0000.0,0008.58,0004.20,0003.66
2024-05-13 20:49:00,SystemResetWarning,0826.4,5.00,000.00,024.2,023.6,000.0,032.2,026.1,022.7,0000.0,0009.04,0004.26,0003.67
2024-05-13 20:50:00,SystemResetWarning,0826.4,5.01,000.00,024.3,023.8,000.0,032.2,026.3,022.3,0000.0,0009.31,0004.28,0003.68
2024-05-13 20:51:00,SystemResetWarning,0826.4,5.00,000.00,024.4,023.9,000.0,032.2,026.3,022.8,0000.0,0009.23,0004.28,0003.70
2024-05-13 20:52:00,SystemResetWarning,0826.4,4.99,000.00,024.5,023.9,000.0,032.3,026.3,022.5,0000.0,0009.29,0004.32,0003.73
2024-05-13 20:53:00,SystemResetWarning,0826.3,4.98,000.00,024.3,022.2,000.0,032.4,025.4,022.7,0000.0,0009.31,0004.35,0003.77
2024-05-13 20:54:00,SystemResetWarning,0826.2,5.01,000.00,023.9,020.9,000.0,032.4,024.7,023.3,0000.0,0009.31,0004.38,0003.81
2024-05-13 20:55:00,SystemResetWarning,0826.2,5.01,000.00,023.7,021.2,000.0,032.4,024.8,024.0,0000.0,0009.35,0004.41,0003.84
2024-05-13 20:56:00,SystemResetWarning,0826.3,4.99,000.00,023.7,021.7,000.0,032.3,025.0,023.9,0000.0,0009.45,0004.42,0003.88
2024-05-13 20:57:00,SystemResetWarning,0826.4,5.00,000.00,023.8,022.1,000.0,032.2,025.2,023.9,0000.0,0009.56,0004.47,0003.91
2024-05-13 20:58:00,SystemResetWarning,0826.4,5.00,000.00,023.8,022.5,000.0,032.1,025.5,023.4,0000.0,0008.84,0004.46,0003.92
2024-05-13 20:59:00,SystemResetWarning,0826.4,5.01,000.00,023.9,022.8,000.0,032.1,025.6,023.3,0000.0,0008.58,0004.45,0003.94
